Niagara Falls, NY

1:48 AM EST on December 12, 2017 (GMT -0500)
Niagara Falls International

Weather History for KIAG - February, 2013

Change the Weather History Date:

Tuesday, February 12, 2013

  Actual Average Record
Temperature  
Mean Temperature 32 °F -  
Max Temperature 34 °F 31 °F 60 °F (1999)
Min Temperature 30 °F 17 °F -9 °F (2014)
Degree Days  
Heating Degree Days 33    
Moisture  
Dew Point 24 °F    
Average Humidity 73    
Maximum Humidity 80    
Minimum Humidity 66    
Precipitation  
Precipitation 0.00 in - - ()
Snow  
Snow 0.00 in - - ()
Snow Depth 2.00 in    
Sea Level Pressure  
Sea Level Pressure 29.91 in    
Wind  
Wind Speed 20 mph (WSW)    
Max Wind Speed 28 mph    
Max Gust Speed 39 mph    
Visibility 10 miles    
Events Snow    
Averages and records for this station are not official NWS values.
T = Trace of Precipitation, MM = Missing Value Source: NWS Daily Summary

Daily Weather History Graph

Daily Weather History Graph

Search for Another Location

Airport or City:

Trip Planner

Search our weather history database for the weather conditions in past years. The results will help you decide how hot, cold, wet, or windy it might be!

Date:

Astronomy

Feb. 12, 2013 Rise Set
Actual Time 7:17 AM EST 5:43 PM EST
Civil Twilight 6:47 AM EST 6:12 PM EST
Nautical Twilight 6:14 AM EST 6:46 PM EST
Astronomical Twilight 5:41 AM EST 7:19 PM EST
Moon 8:08 AM EST 8:48 PM EST
Length of Visible Light 11h 24m
Length of Day
10h 26m
Waxing Crescent, 7% of the Moon is Illuminated
Feb 12
Waxing Crescent
Feb 17
First Quarter
Feb 25
Full
Mar 4
Last Quarter
Mar 11
New

Hourly Weather History & Observations

Time (EST) Temp. Windchill Dew Point Humidity Pressure Visibility Wind Dir Wind Speed Gust Speed Precip Events Conditions
12:49 AM 33.8 °F 20.5 °F 26.6 °F 75% 29.73 in 10.0 mi WSW 27.6 mph 36.8 mph N/A   Overcast
12:53 AM 34.0 °F 21.3 °F 27.0 °F 75% 29.77 in 10.0 mi WSW 25.3 mph 36.8 mph N/A   Overcast
1:05 AM 33.8 °F 21.3 °F 26.6 °F 75% 29.74 in 10.0 mi WSW 24.2 mph 31.1 mph N/A   Overcast
1:53 AM 33.1 °F 20.1 °F 27.0 °F 78% 29.78 in 10.0 mi WSW 25.3 mph 33.4 mph N/A   Overcast
2:53 AM 33.1 °F 20.9 °F 26.1 °F 75% 29.80 in 10.0 mi WSW 21.9 mph 39.1 mph N/A   Overcast
3:53 AM 33.1 °F 20.9 °F 26.1 °F 75% 29.83 in 10.0 mi WSW 21.9 mph 27.6 mph N/A   Overcast
4:53 AM 33.1 °F 20.6 °F 26.1 °F 75% 29.86 in 10.0 mi WSW 23.0 mph 28.8 mph N/A   Overcast
5:53 AM 33.1 °F 20.9 °F 26.1 °F 75% 29.87 in 10.0 mi West 21.9 mph 35.7 mph N/A   Overcast
6:53 AM 33.1 °F 20.9 °F 26.1 °F 75% 29.89 in 10.0 mi WSW 21.9 mph 33.4 mph N/A   Overcast
7:03 AM 33.8 °F 22.2 °F 26.6 °F 75% 29.86 in 10.0 mi WSW 20.7 mph 29.9 mph N/A   Overcast
7:40 AM 33.8 °F 23.2 °F 24.8 °F 70% 29.88 in 10.0 mi West 17.3 mph 26.5 mph N/A   Overcast
7:53 AM 32.0 °F 20.8 °F 25.0 °F 75% 29.93 in 10.0 mi West 17.3 mph 26.5 mph N/A   Overcast
8:44 AM 32.0 °F 20.1 °F 24.8 °F 75% 29.90 in 10.0 mi WSW 19.6 mph - N/A   Mostly Cloudy
8:53 AM 32.0 °F 19.8 °F 24.1 °F 73% 29.94 in 10.0 mi West 20.7 mph 28.8 mph N/A   Mostly Cloudy
9:53 AM 33.1 °F 21.9 °F 24.1 °F 70% 29.96 in 10.0 mi WSW 18.4 mph 29.9 mph N/A   Overcast
10:18 AM 33.8 °F 22.2 °F 24.8 °F 70% 29.92 in 10.0 mi WSW 20.7 mph 28.8 mph N/A   Overcast
10:53 AM 32.0 °F 19.8 °F 24.1 °F 73% 29.97 in 10.0 mi WSW 20.7 mph 31.1 mph N/A   Overcast
11:53 AM 32.0 °F 19.8 °F 23.0 °F 69% 29.98 in 10.0 mi West 20.7 mph 29.9 mph N/A   Overcast
12:53 PM 32.0 °F 21.6 °F 23.0 °F 69% 29.97 in 10.0 mi WSW 15.0 mph - N/A   Overcast
1:21 PM 32.0 °F 20.5 °F 23.0 °F 69% 29.92 in 7.0 mi West 18.4 mph 24.2 mph 0.00 in Snow Light Snow
1:53 PM 32.0 °F 20.8 °F 23.0 °F 69% 29.96 in 7.0 mi WSW 17.3 mph 26.5 mph 0.00 in Snow Light Snow
2:39 PM 32.0 °F 21.6 °F 23.0 °F 69% 29.91 in 7.0 mi West 15.0 mph - 0.00 in Snow Light Snow
2:53 PM 32.0 °F 20.8 °F 21.9 °F 66% 29.95 in 7.0 mi West 17.3 mph - 0.00 in Snow Light Snow
3:53 PM 32.0 °F 22.1 °F 21.9 °F 66% 29.94 in 10.0 mi West 13.8 mph - 0.00 in Snow Light Snow
4:30 PM 30.2 °F 19.8 °F 23.0 °F 75% 29.90 in 10.0 mi West 13.8 mph - 0.00 in   Overcast
4:53 PM 30.9 °F 21.7 °F 23.0 °F 72% 29.94 in 10.0 mi WSW 11.5 mph - 0.00 in   Overcast
5:13 PM 30.2 °F 20.8 °F 21.2 °F 69% 29.92 in 10.0 mi WSW 11.5 mph - N/A   Overcast
5:53 PM 30.9 °F 20.7 °F 21.9 °F 69% 29.97 in 10.0 mi WSW 13.8 mph - N/A   Overcast
6:22 PM 30.2 °F 19.3 °F 23.0 °F 75% 29.94 in 10.0 mi WSW 15.0 mph 24.2 mph N/A   Overcast
6:53 PM 30.9 °F 19.4 °F 24.1 °F 76% 29.99 in 10.0 mi WSW 17.3 mph 25.3 mph N/A   Overcast
7:14 PM 30.2 °F 18.9 °F 24.8 °F 80% 29.94 in 10.0 mi WSW 16.1 mph 24.2 mph N/A   Overcast
7:53 PM 30.9 °F 20.2 °F 24.1 °F 76% 30.00 in 10.0 mi WSW 15.0 mph 23.0 mph 0.00 in   Overcast
8:04 PM 30.2 °F 19.8 °F 24.8 °F 80% 29.96 in 10.0 mi WSW 13.8 mph - 0.00 in Snow Light Snow
8:41 PM 30.2 °F 20.8 °F 24.8 °F 80% 29.94 in 10.0 mi WSW 11.5 mph - 0.00 in Snow Light Snow
8:53 PM 30.9 °F 22.8 °F 24.1 °F 76% 29.99 in 10.0 mi WSW 9.2 mph - 0.00 in Snow Light Snow
9:53 PM 30.9 °F 21.7 °F 23.0 °F 72% 29.97 in 10.0 mi West 11.5 mph - 0.00 in Snow Light Snow
10:21 PM 30.2 °F 21.9 °F 21.2 °F 69% 29.91 in 10.0 mi West 9.2 mph - 0.00 in   Overcast
10:53 PM 30.0 °F 23.2 °F 24.1 °F 79% 29.95 in 10.0 mi WSW 6.9 mph - 0.00 in   Overcast
11:53 PM 30.0 °F 24.1 °F 24.1 °F 79% 29.93 in 10.0 mi WSW 5.8 mph - N/A   Overcast